Starlink 11082

operational
NORAD ID: 59711 Int'l Des: 2024-088 Owner: SPXS Country: US Constellation: starlink
LEOCIRCULAR

Über Starlink 11082

Beschreibung wird geladen...

Live-Position

3D-Globus wird geladen...

Nächste Überflüge

Höhenverlauf

Altitude vs Time

uPlot chart will show altitude changes over time

Zweizeiliger Elementsatz

1 59711U 24088D 25304.08461015 .00000760 00000-0 11136-4 0 9993
2 59711 53.1597 245.3723 0001470 97.1829 262.9356 15.69704594 85915
Epoch: 31. Okt. 2025 • Age: 42 hours

Aktueller Status

Höhe 364.3 km
Geschwindigkeit 7.69 km/s
Subsatellitenpunkt -16.23°S, 85.82°E
Startdatum 10. Mai 2024
Alter 1.4 years
Typ internet

Technische Details

Klassifizierung Payload
Masse 960.00 kg
Trockenmasse 910.00 kg
Gesamtmasse 960.00 kg
Länge 0.30 m
Durchmesser 4.10 m
Spannweite 29.00 m
Form Box + pan
Hersteller SPXS
Bus-Typ Starlink V2MD
Phasenstatus In Orbit
Besitzer/Staat SPXS/US

Große Konstellationen

Loading constellations...